This demonstration page uses our WeatherBlox Daily Observations layout. Learn more.

Left ArrowRight Arrow

Hourly Observations for September 22, 2018

Temp ( °F °C ) Dew Point ( °F °C ) Humidity (%) Winds ( mph kmh ) Pressure ( in mb ) Visibility ( mi km ) Precip ( " mm )
12:57 am 00:57 Clear 47 8.3 42 5.6 83 83 Calm 30.32 1027 10 16 0.00 0.00
1:57 am 01:57 Clear 44 6.7 41 5 89 89 E 5 7 30.32 1027 10 16 0.00 0.00
2:57 am 02:57 Clear 44 6.7 41 5 89 89 SE 5 7 30.31 1027 10 16 0.00 0.00
3:57 am 03:57 Clear 44 6.7 41 5 89 89 SE 6 9 30.30 1026 10 16 0.00 0.00
4:57 am 04:57 Clear 43 6.1 41 5 93 93 SSE 3 6 30.29 1026 10 16 0.00 0.03
5:57 am 05:57 Clear 43 6.1 41 5 93 93 SSE 6 9 30.27 1025 10 16 0.00 0.00
6:57 am 06:57 Clear 43 6.1 41 5 93 93 SSE 7 11 30.27 1025 10 16 0.00 0.03
7:57 am 07:57 Sunny 45 7.2 42 5.6 90 90 S 8 13 30.27 1025 10 16 0.00 0.00
8:57 am 08:57 Sunny 49 9.4 45 7.2 86 86 S 10 17 30.27 1025 10 16 0.00 0.00
9:57 am 09:57 Sunny 55 12.8 46 7.8 72 72 S 15 24 30.25 1024 10 16 0.00 0.00
10:57 am 10:57 Sunny 59 15 47 8.3 64 64 S 15 24 30.24 1024 10 16 0.00 0.00
11:57 am 11:57 Sunny 64 17.8 47 8.3 54 54 S 14 22 30.21 1023 10 16 0.00 0.00
12:57 pm 12:57 Sunny 67 19.4 47 8.3 49 49 S 16 26 30.17 1022 10 16 0.00 0.00
1:57 pm 13:57 Sunny 70 21.1 47 8.3 44 44 S 20 31 30.13 1020 10 16 0.00 0.00
2:57 pm 14:57 Sunny 73 22.8 45 7.2 37 37 S 16 26 30.09 1019 10 16 0.00 0.00
3:57 pm 15:57 Sunny 73 22.8 46 7.8 38 38 S 20 31 30.06 1018 10 16 0.00 0.00
4:57 pm 16:57 Sunny 74 23.3 46 7.8 37 37 SSE 18 30 30.04 1017 10 16 0.00 0.00
5:57 pm 17:57 Sunny 72 22.2 45 7.2 38 38 S 17 28 30.04 1017 10 16 0.00 0.00
6:57 pm 18:57 Sunny 69 20.6 46 7.8 44 44 S 15 24 30.04 1017 10 16 0.00 0.00
7:57 pm 19:57 Clear 61 16.1 47 8.3 60 60 S 7 11 30.06 1018 10 16 0.00 0.00
8:57 pm 20:57 Clear 58 14.4 48 8.9 70 70 SSE 9 15 30.06 1018 10 16 0.00 0.00
9:57 pm 21:57 Clear 57 13.9 48 8.9 72 72 S 15 24 30.04 1017 10 16 0.00 0.00
10:57 pm 22:57 Clear 59 15 49 9.4 69 69 S 17 28 30.03 1017 10 16 0.00 0.00
11:57 pm 23:57 Clear 57 13.9 49 9.4 74 74 S 12 19 30.03 1017 10 16 0.00 0.00

Powered by AerisWeather